FW8143 Weather Reports


Display with metric or nautical units.
time (UTC)temp
F
wind
direction
speed
MPH
gust
MPH
rain 1hr
in
rain 24hr
in
rain mn
in
humidity
%
barometer
mb
20260509081911 55 86 3.0 6.0 0.00 0.00 0.00 30 1023.7
20260509081411 55 89 4.0 7.0 0.00 0.00 0.00 30 1023.5
20260509080910 55 74 4.0 9.0 0.00 0.00 0.00 30 1023.5
20260509080411 55 82 4.0 9.0 0.00 0.00 0.00 30 1023.7
20260509080127 55 66 5.0 8.0 0.00 0.00 0.00 30 1023.7
20260509075633 55 73 6.0 9.0 0.00 0.00 0.00 30 1023.7
20260509074911 55 62 7.0 9.0 0.00 0.00 0.00 30 1023.7
20260509074411 55 92 6.0 10.0 0.00 0.00 0.00 30 1023.5
20260509073906 55 91 6.0 10.0 0.00 0.00 0.00 30 1023.7
20260509073359 55 103 6.0 9.0 0.00 0.00 0.00 30 1023.7
20260509072853 55 82 6.0 9.0 0.00 0.00 0.00 30 1023.8
20260509072347 55 92 6.0 9.0 0.00 0.00 0.00 30 1023.8
20260509072102 55 78 6.0 9.0 0.00 0.00 0.00 30 1023.8
20260509071335 55 100 6.0 8.0 0.00 0.00 0.00 30 1023.9
20260509070829 55 98 6.0 9.0 0.00 0.00 0.00 30 1023.8
20260509070323 55 86 7.0 10.0 0.00 0.00 0.00 30 1023.8
20260509065817 55 101 7.0 10.0 0.00 0.00 0.00 30 1023.9
20260509065311 55 101 7.0 9.0 0.00 0.00 0.00 30 1024.0
20260509064806 55 80 6.0 9.0 0.00 0.00 0.00 30 1024.0
20260509064259 55 98 6.0 10.0 0.00 0.00 0.00 30 1024.0
20260509063759 55 105 7.0 10.0 0.00 0.00 0.00 30 1024.0
20260509063258 55 67 7.0 10.0 0.00 0.00 0.00 30 1024.0
20260509062759 55 90 7.0 10.0 0.00 0.00 0.00 30 1024.0
20260509062258 55 79 7.0 10.0 0.00 0.00 0.00 30 1024.2
20260509061759 55 107 6.0 9.0 0.00 0.00 0.00 29 1024.0
20260509061257 55 94 6.0 10.0 0.00 0.00 0.00 29 1024.0
20260509060758 55 113 6.0 10.0 0.00 0.00 0.00 29 1024.0
20260509060258 55 103 6.0 9.0 0.00 0.00 0.00 29 1024.2
20260509055757 56 107 6.0 10.0 0.00 0.00 0.00 29 1024.2
20260509055257 56 93 7.0 10.0 0.00 0.00 0.00 28 1024.2
20260509054757 56 92 7.0 10.0 0.00 0.00 0.00 28 1024.2
20260509054257 56 98 7.0 10.0 0.00 0.00 0.00 28 1024.2
20260509053757 56 106 6.0 9.0 0.00 0.00 0.00 28 1024.2
20260509053514 56 77 5.0 8.0 0.00 0.00 0.00 27 1024.3
20260509053012 56 78 6.0 8.0 0.00 0.00 0.00 28 1024.2
20260509052253 56 104 6.0 9.0 0.00 0.00 0.00 27 1024.3
20260509051752 56 80 7.0 10.0 0.00 0.00 0.00 27 1024.3
20260509051734 57 98 7.0 10.0 0.00 0.00 0.00 27 1024.3
20260509050754 57 98 7.0 9.0 0.00 0.00 0.00 26 1024.3
20260509050254 57 101 6.0 9.0 0.00 0.00 0.00 26 1024.4
20260509045752 57 101 6.0 11.0 0.00 0.00 0.00 26 1024.4
20260509045253 57 76 7.0 11.0 0.00 0.00 0.00 26 1024.4
20260509044752 58 76 6.0 10.0 0.00 0.00 0.00 25 1024.4
20260509044252 58 98 6.0 10.0 0.00 0.00 0.00 25 1024.4
20260509043753 58 109 7.0 12.0 0.00 0.00 0.00 25 1024.4
20260509043252 58 98 7.0 12.0 0.00 0.00 0.00 25 1024.4
20260509043016 59 107 6.0 9.0 0.00 0.00 0.00 25 1024.5
20260509042253 59 79 4.0 9.0 0.00 0.00 0.00 24 1024.7
20260509041753 59 96 4.0 9.0 0.00 0.00 0.00 23 1024.7
20260509041252 60 64 4.0 9.0 0.00 0.00 0.00 23 1024.5
20260509040751 60 95 3.0 8.0 0.00 0.00 0.00 23 1024.5
20260509040251 60 89 2.0 7.0 0.00 0.00 0.00 22 1024.4
20260509035750 60 98 2.0 4.0 0.00 0.00 0.00 22 1024.4
20260509035517 61 97 3.0 6.0 0.00 0.00 0.00 21 1024.4
20260509034747 61 90 3.0 7.0 0.00 0.00 0.00 21 1024.3
20260509034244 62 81 3.0 7.0 0.00 0.00 0.00 21 1024.3
20260509033743 62 79 3.0 6.0 0.00 0.00 0.00 21 1024.2
20260509033735 62 96 2.0 4.0 0.00 0.00 0.00 21 1024.2
20260509032742 63 88 1.0 4.0 0.00 0.00 0.00 20 1024.0
20260509032506 63 178 1.0 4.0 0.00 0.00 0.00 20 1024.0
20260509031742 64 238 2.0 4.0 0.00 0.00 0.00 19 1023.9
20260509031243 64 215 1.0 4.0 0.00 0.00 0.00 19 1023.8
20260509030742 64 254 1.0 5.0 0.00 0.00 0.00 19 1023.8
20260509030242 65 208 2.0 5.0 0.00 0.00 0.00 19 1023.7
20260509030013 65 252 2.0 7.0 0.00 0.00 0.00 19 1023.5
20260509025505 65 274 2.0 9.0 0.00 0.00 0.00 19 1023.5
20260509024743 65 234 3.0 9.0 0.00 0.00 0.00 18 1023.4
20260509024242 66 229 3.0 7.0 0.00 0.00 0.00 18 1023.3
20260509023736 66 223 5.0 13.0 0.00 0.00 0.00 18 1023.2
20260509023230 66 232 6.0 13.0 0.00 0.00 0.00 17 1023.0
20260509023206 67 238 6.0 12.0 0.00 0.00 0.00 17 1023.0
20260509022218 67 261 5.0 12.0 0.00 0.00 0.00 17 1022.9
20260509021712 68 254 5.0 12.0 0.00 0.00 0.00 16 1022.8
20260509021206 68 261 5.0 12.0 0.00 0.00 0.00 16 1022.6
20260509020700 69 241 4.0 12.0 0.00 0.00 0.00 16 1022.6
20260509020154 69 248 5.0 12.0 0.00 0.00 0.00 16 1022.5
20260509015648 69 173 6.0 11.0 0.00 0.00 0.00 16 1022.4
20260509015141 70 272 7.0 13.0 0.00 0.00 0.00 16 1022.3
20260509014635 70 263 7.0 13.0 0.00 0.00 0.00 15 1022.3
20260509014130 71 265 7.0 12.0 0.00 0.00 0.00 16 1022.1
20260509013850 71 261 7.0 14.0 0.00 0.00 0.00 16 1022.1
20260509013337 71 267 6.0 15.0 0.00 0.00 0.00 16 1022.0
20260509012611 71 227 5.0 15.0 0.00 0.00 0.00 17 1022.0
20260509012106 71 175 3.0 9.0 0.00 0.00 0.00 17 1021.9
20260509011601 71 221 3.0 7.0 0.00 0.00 0.00 17 1022.0
20260509011054 71 270 2.0 7.0 0.00 0.00 0.00 17 1022.0
20260509010548 71 243 2.0 6.0 0.00 0.00 0.00 18 1022.1
20260509010041 71 240 4.0 8.0 0.00 0.00 0.00 17 1022.0
20260509005535 71 199 5.0 11.0 0.00 0.00 0.00 17 1022.0
20260509005030 72 242 5.0 11.0 0.00 0.00 0.00 17 1022.0
20260509004523 72 216 4.0 11.0 0.00 0.00 0.00 17 1022.1
20260509004017 72 259 4.0 10.0 0.00 0.00 0.00 17 1022.1
20260509003511 72 236 5.0 10.0 0.00 0.00 0.00 17 1022.1
20260509003006 72 242 4.0 8.0 0.00 0.00 0.00 18 1022.1
20260509002719 72 232 3.0 7.0 0.00 0.00 0.00 17 1022.1
20260509001953 72 263 3.0 7.0 0.00 0.00 0.00 17 1022.1
20260509001448 73 252 2.0 7.0 0.00 0.00 0.00 17 1022.3
20260509000942 73 255 2.0 4.0 0.00 0.00 0.00 17 1022.1
20260509000436 73 192 2.0 7.0 0.00 0.00 0.00 17 1022.3
20260508235930 73 251 3.0 7.0 0.00 0.00 0.00 16 1022.3
20260508235424 74 250 3.0 8.0 0.00 0.00 0.00 16 1022.3
20260508234918 74 236 5.0 10.0 0.00 0.00 0.00 16 1022.3
20260508234412 75 273 6.0 12.0 0.00 0.00 0.00 15 1022.3
20260508233906 76 236 4.0 12.0 0.00 0.00 0.00 15 1022.3
20260508233400 77 248 4.0 13.0 0.00 0.00 0.00 15 1022.3
20260508232854 77 263 6.0 13.0 0.00 0.00 0.00 14 1022.1
20260508232348 77 25 6.0 12.0 0.00 0.00 0.00 15 1022.1
20260508231842 78 305 5.0 12.0 0.00 0.00 0.00 14 1022.3
20260508231813 78 9 5.0 13.0 0.00 0.00 0.00 14 1022.1
20260508231320 78 325 6.0 16.0 0.00 0.00 0.00 15 1022.3
20260508230323 78 40 6.0 16.0 0.00 0.00 0.00 14 1022.1
20260508225817 78 344 5.0 17.0 0.00 0.00 0.00 14 1022.1
20260508225312 78 28 4.0 17.0 0.00 0.00 0.00 14 1022.1
20260508224806 78 193 3.0 11.0 0.00 0.00 0.00 14 1022.1
20260508224300 78 328 3.0 9.0 0.00 0.00 0.00 14 1022.3
20260508224022 78 331 3.0 13.0 0.00 0.00 0.00 15 1022.3
20260508223248 78 254 5.0 13.0 0.00 0.00 0.00 14 1022.3
20260508222742 78 254 5.0 15.0 0.00 0.00 0.00 14 1022.4
20260508222503 78 337 7.0 16.0 0.00 0.00 0.00 14 1022.4
20260508221734 78 43 7.0 16.0 0.00 0.00 0.00 14 1022.4
20260508221234 77 5 7.0 16.0 0.00 0.00 0.00 15 1022.4
20260508220734 77 286 7.0 15.0 0.00 0.00 0.00 14 1022.4
20260508220234 78 19 8.0 14.0 0.00 0.00 0.00 15 1022.4
20260508215734 78 11 8.0 18.0 0.00 0.00 0.00 14 1022.4
20260508215236 78 5 7.0 18.0 0.00 0.00 0.00 14 1022.5
20260508214951 78 0 8.0 18.0 0.00 0.00 0.00 14 1022.6
20260508214233 78 5 6.0 18.0 0.00 0.00 0.00 14 1022.6
20260508213734 77 10 5.0 14.0 0.00 0.00 0.00 14 1022.8
20260508213234 77 0 5.0 12.0 0.00 0.00 0.00 15 1022.8
20260508212736 77 32 5.0 12.0 0.00 0.00 0.00 15 1022.9
20260508212234 76 329 4.0 9.0 0.00 0.00 0.00 14 1022.9
20260508211731 77 265 4.0 10.0 0.00 0.00 0.00 14 1023.0
20260508211230 77 271 4.0 13.0 0.00 0.00 0.00 14 1023.0
20260508210730 76 355 6.0 13.0 0.00 0.00 0.00 14 1023.0
20260508210230 76 291 6.0 16.0 0.00 0.00 0.00 14 1023.0
20260508205731 76 240 7.0 19.0 0.00 0.00 0.00 14 1023.2
20260508205444 76 301 6.0 19.0 0.00 0.00 0.00 14 1023.2
20260508204948 76 304 4.0 14.0 0.00 0.00 0.00 14 1023.3
20260508204224 76 269 5.0 14.0 0.00 0.00 0.00 14 1023.4
20260508203722 76 217 7.0 18.0 0.00 0.00 0.00 14 1023.4
20260508203219 76 252 7.0 18.0 0.00 0.00 0.00 15 1023.5
20260508202719 76 0 7.0 13.0 0.00 0.00 0.00 15 1023.5
20260508202220 75 328 6.0 13.0 0.00 0.00 0.00 15 1023.7
20260508201720 75 250 6.0 13.0 0.00 0.00 0.00 15 1023.7
20260508201220 75 279 6.0 13.0 0.00 0.00 0.00 15 1023.8
20260508200719 75 279 6.0 14.0 0.00 0.00 0.00 16 1023.8
20260508200439 75 15 6.0 14.0 0.00 0.00 0.00 16 1023.8
20260508195720 75 325 6.0 13.0 0.00 0.00 0.00 16 1023.9
20260508195217 74 337 7.0 13.0 0.00 0.00 0.00 15 1023.9
20260508194716 74 5 8.0 15.0 0.00 0.00 0.00 16 1024.0
20260508194216 74 14 6.0 16.0 0.00 0.00 0.00 17 1024.0
20260508193715 73 355 5.0 16.0 0.00 0.00 0.00 17 1024.2
20260508193216 73 16 4.0 12.0 0.00 0.00 0.00 17 1024.0
20260508192715 72 342 5.0 13.0 0.00 0.00 0.00 17 1024.2
20260508192217 72 315 7.0 17.0 0.00 0.00 0.00 17 1024.2
20260508191715 72 327 7.0 17.0 0.00 0.00 0.00 17 1024.3
20260508191216 72 51 8.0 17.0 0.00 0.00 0.00 17 1024.3
20260508190716 72 5 6.0 17.0 0.00 0.00 0.00 17 1024.3
20260508190216 71 61 6.0 16.0 0.00 0.00 0.00 18 1024.3
20260508185715 71 0 9.0 20.0 0.00 0.00 0.00 18 1024.4
20260508185436 71 333 9.0 20.0 0.00 0.00 0.00 17 1024.4
20260508184715 71 320 9.0 18.0 0.00 0.00 0.00 18 1024.3
20260508184215 70 326 9.0 18.0 0.00 0.00 0.00 18 1024.4
20260508183714 70 336 8.0 16.0 0.00 0.00 0.00 18 1024.4
20260508183436 70 314 8.0 16.0 0.00 0.00 0.00 18 1024.5
20260508182713 69 13 6.0 13.0 0.00 0.00 0.00 20 1024.5
20260508182430 69 29 8.0 20.0 0.00 0.00 0.00 19 1024.8
20260508181709 69 315 7.0 20.0 0.00 0.00 0.00 19 1024.8
20260508181431 69 298 6.0 15.0 0.00 0.00 0.00 19 1024.8
20260508180708 69 349 8.0 18.0 0.00 0.00 0.00 19 1024.9
20260508180208 69 9 8.0 18.0 0.00 0.00 0.00 19 1024.9
20260508175707 69 20 7.0 15.0 0.00 0.00 0.00 19 1025.0
20260508175208 68 17 8.0 18.0 0.00 0.00 0.00 20 1025.2
20260508174707 68 355 9.0 18.0 0.00 0.00 0.00 20 1025.3
20260508174204 67 26 8.0 16.0 0.00 0.00 0.00 20 1025.3
20260508173927 67 308 7.0 15.0 0.00 0.00 0.00 20 1025.3
20260508173204 67 303 8.0 17.0 0.00 0.00 0.00 21 1025.3
20260508172705 67 17 7.0 17.0 0.00 0.00 0.00 22 1025.4
20260508172201 66 15 7.0 15.0 0.00 0.00 0.00 23 1025.3
20260508171659 66 304 8.0 15.0 0.00 0.00 0.00 22 1025.3
20260508171157 66 327 7.0 15.0 0.00 0.00 0.00 22 1025.4
20260508170656 66 294 6.0 14.0 0.00 0.00 0.00 22 1025.3
20260508170154 65 302 7.0 17.0 0.00 0.00 0.00 23 1025.5
20260508170140 65 26 9.0 17.0 0.00 0.00 0.00 23 1025.5
20260508165143 65 327 9.0 18.0 0.00 0.00 0.00 23 1025.5
20260508164637 64 13 8.0 18.0 0.00 0.00 0.00 24 1025.5
20260508164352 64 342 8.0 17.0 0.00 0.00 0.00 24 1025.4
20260508163625 64 316 8.0 17.0 0.00 0.00 0.00 24 1025.4
20260508163118 63 355 8.0 17.0 0.00 0.00 0.00 25 1025.5
20260508162613 63 294 7.0 14.0 0.00 0.00 0.00 25 1025.4
20260508162328 62 279 8.0 18.0 0.00 0.00 0.00 25 1025.4
20260508161600 62 305 7.0 18.0 0.00 0.00 0.00 25 1025.4
20260508161055 62 282 7.0 15.0 0.00 0.00 0.00 25 1025.5
20260508160548 62 304 7.0 15.0 0.00 0.00 0.00 25 1025.5
20260508160043 61 28 6.0 14.0 0.00 0.00 0.00 25 1025.5
20260508155802 61 0 7.0 14.0 0.00 0.00 0.00 26 1025.5
20260508155252 60 5 6.0 12.0 0.00 0.00 0.00 26 1025.5
20260508154525 60 18 6.0 12.0 0.00 0.00 0.00 26 1025.4
20260508154240 60 323 6.0 14.0 0.00 0.00 0.00 27 1025.4
20260508153513 59 0 6.0 14.0 0.00 0.00 0.00 28 1025.4
20260508153007 58 343 6.0 11.0 0.00 0.00 0.00 28 1025.4
20260508152500 58 298 6.0 11.0 0.00 0.00 0.00 29 1025.4
20260508151955 57 313 5.0 10.0 0.00 0.00 0.00 30 1025.4
20260508151449 57 321 5.0 11.0 0.00 0.00 0.00 30 1025.4
20260508150943 56 317 5.0 12.0 0.00 0.00 0.00 31 1025.4
20260508150437 55 348 4.0 12.0 0.00 0.00 0.00 32 1025.4
20260508145931 54 337 5.0 12.0 0.00 0.00 0.00 33 1025.4
20260508145424 53 5 6.0 12.0 0.00 0.00 0.00 34 1025.3
20260508144919 52 5 7.0 13.0 0.00 0.00 0.00 35 1025.3
20260508144413 51 12 7.0 13.0 0.00 0.00 0.00 37 1025.3
20260508143907 51 10 6.0 11.0 0.00 0.00 0.00 38 1025.3
20260508143400 50 346 5.0 10.0 0.00 0.00 0.00 38 1025.2
20260508142855 49 327 5.0 10.0 0.00 0.00 0.00 39 1025.3
20260508142821 48 49 6.0 10.0 0.00 0.00 0.00 39 1025.3
20260508142438 49 0 6.0 10.0 0.00 0.00 0.00 40 1025.4
20260508141337 48 355 5.0 9.0 0.00 0.00 0.00 39 1025.3
20260508140831 48 25 5.0 9.0 0.00 0.00 0.00 39 1025.3
20260508140325 47 30 6.0 10.0 0.00 0.00 0.00 38 1025.3
20260508135819 47 28 7.0 11.0 0.00 0.00 0.00 38 1025.3
20260508135312 47 11 8.0 12.0 0.00 0.00 0.00 38 1025.3
20260508134806 47 355 8.0 12.0 0.00 0.00 0.00 38 1025.3
20260508134525 46 16 7.0 12.0 0.00 0.00 0.00 39 1025.3
20260508133755 46 28 6.0 12.0 0.00 0.00 0.00 40 1025.2
20260508133249 46 5 5.0 10.0 0.00 0.00 0.00 41 1025.0
20260508133008 46 5 5.0 9.0 0.00 0.00 0.00 40 1025.0
20260508132236 46 17 5.0 9.0 0.00 0.00 0.00 40 1024.9
20260508131731 46 13 6.0 9.0 0.00 0.00 0.00 40 1024.8
20260508131226 46 19 6.0 9.0 0.00 0.00 0.00 39 1024.8
20260508130942 46 24 5.0 8.0 0.00 0.00 0.00 39 1024.7
20260508130213 46 15 6.0 8.0 0.00 0.00 0.00 38 1024.5
20260508125706 46 20 6.0 8.0 0.00 0.00 0.00 38 1024.4
20260508125201 46 31 6.0 8.0 0.00 0.00 0.00 38 1024.3
20260508124655 47 23 6.0 9.0 0.00 0.00 0.00 37 1024.3
20260508124413 47 24 6.0 9.0 0.00 0.00 0.00 37 1024.3
20260508123642 47 15 5.0 8.0 0.00 0.00 0.00 37 1024.3
20260508123137 47 29 5.0 8.0 0.00 0.00 0.00 37 1024.3
20260508122850 47 43 5.0 10.0 0.00 0.00 0.00 36 1024.3
20260508122355 47 82 5.0 10.0 0.00 0.00 0.00 36 1024.3
20260508121631 47 22 6.0 9.0 0.00 0.00 0.00 36 1024.3
20260508121130 47 16 7.0 13.0 0.00 0.00 0.00 36 1024.4
20260508120631 47 36 6.0 13.0 0.00 0.00 0.00 36 1024.3
20260508120131 48 42 5.0 10.0 0.00 0.00 0.00 35 1024.2
20260508115633 48 38 4.0 10.0 0.00 0.00 0.00 35 1024.2
20260508115356 48 44 3.0 8.0 0.00 0.00 0.00 35 1024.2
20260508114630 48 5 4.0 8.0 0.00 0.00 0.00 35 1024.0
20260508114130 48 42 5.0 10.0 0.00 0.00 0.00 35 1024.0
20260508113631 49 18 6.0 14.0 0.00 0.00 0.00 34 1024.0
20260508113132 49 32 6.0 14.0 0.00 0.00 0.00 34 1023.9
20260508112631 49 23 5.0 10.0 0.00 0.00 0.00 34 1023.9
20260508112131 49 27 5.0 9.0 0.00 0.00 0.00 34 1023.9
20260508111630 49 62 5.0 9.0 0.00 0.00 0.00 34 1023.9
20260508111130 49 42 6.0 9.0 0.00 0.00 0.00 34 1023.8
20260508110631 49 53 5.0 9.0 0.00 0.00 0.00 34 1023.8
20260508110127 49 24 5.0 10.0 0.00 0.00 0.00 34 1023.9
20260508105627 49 53 6.0 12.0 0.00 0.00 0.00 34 1023.8
20260508105127 49 0 6.0 12.0 0.00 0.00 0.00 34 1023.8
20260508104626 49 37 5.0 9.0 0.00 0.00 0.00 33 1023.7
20260508104127 49 76 5.0 11.0 0.00 0.00 0.00 33 1023.5
20260508103845 49 355 6.0 11.0 0.00 0.00 0.00 33 1023.5
20260508103126 49 19 7.0 12.0 0.00 0.00 0.00 33 1023.4
20260508102627 49 342 7.0 12.0 0.00 0.00 0.00 33 1023.3
20260508102340 49 50 7.0 12.0 0.00 0.00 0.00 33 1023.3
20260508102224 49 58 7.0 12.0 0.00 0.00 0.00 33 1023.3
20260508101345 48 32 6.0 13.0 0.00 0.00 0.00 33 1023.3
20260508100622 48 44 6.0 13.0 0.00 0.00 0.00 32 1023.3
20260508100123 48 42 6.0 14.0 0.00 0.00 0.00 32 1023.2
20260508095622 47 66 6.0 14.0 0.00 0.00 0.00 32 1023.2
20260508095123 47 48 5.0 11.0 0.00 0.00 0.00 32 1023.2
20260508094623 47 44 5.0 9.0 0.00 0.00 0.00 32 1023.3
20260508094124 47 35 5.0 9.0 0.00 0.00 0.00 32 1023.4
20260508093624 46 51 5.0 10.0 0.00 0.00 0.00 31 1023.3
20260508093124 46 69 5.0 10.0 0.00 0.00 0.00 31 1023.4
20260508092623 46 42 5.0 9.0 0.00 0.00 0.00 31 1023.4
20260508092120 46 63 5.0 9.0 0.00 0.00 0.00 30 1023.4
20260508091621 46 78 4.0 8.0 0.00 0.00 0.00 29 1023.4
20260508091120 46 68 4.0 7.0 0.00 0.00 0.00 28 1023.5
20260508090849 46 87 4.0 7.0 0.00 0.00 0.00 27 1023.5
20260508090120 46 79 5.0 8.0 0.00 0.00 0.00 26 1023.5
20260508085621 46 98 5.0 8.0 0.00 0.00 0.00 27 1023.8
20260508085121 46 88 5.0 8.0 0.00 0.00 0.00 26 1023.7
20260508084620 46 103 5.0 8.0 0.00 0.00 0.00 25 1023.7
20260508084121 46 82 5.0 8.0 0.00 0.00 0.00 25 1023.8
20260508083620 46 98 5.0 8.0 0.00 0.00 0.00 25 1023.8
20260508083119 46 95 4.0 7.0 0.00 0.00 0.00 25 1023.8
20260508082618 46 91 4.0 7.0 0.00 0.00 0.00 25 1023.8
20260508082118 46 88 4.0 7.0 0.00 0.00 0.00 26 1023.9